Location: Lac de la Montagne noire
(46.1952°N, 74.2701°W)
Time: 21:31:09
(UTC-04:00)

Tiangong 2 - Visible Passes

Search period start: 18 March 2019 00:00
Search period end: 28 March 2019 00:00
Orbit: 379 x 390 km, 42.8° (Epoch: 18 March)

Date Brightness Start Highest point End Pass type
(mag) Time Alt. Az. Time Alt. Az. Time Alt. Az.
18 Mar 4.1 04:29:28 14° ESE 04:29:28 14° ESE 04:29:59 10° E visible
18 Mar 1.9 06:01:41 20° WSW 06:03:26 38° S 06:06:26 10° ESE visible
19 Mar 2.3 05:04:58 33° SE 05:04:58 33° SE 05:07:08 10° ESE visible
20 Mar 2.1 05:40:31 28° SW 05:41:09 30° SSW 05:43:59 10° SE visible
21 Mar 3.6 04:43:55 16° SE 04:43:55 16° SE 04:44:46 10° ESE visible
21 Mar 3.1 06:16:09 10° WSW 06:18:03 16° SSW 06:20:02 10° SSE visible
22 Mar 2.9 05:19:39 20° S 05:19:39 20° S 05:21:19 10° SSE visible
